ORBCOMM FM 16 DEB, 44024

Orbit data source: Space-Track

ORBCOMM FM 16 DEB, 44024 is space debris in LEO originally from a launch on Sun, 02 Aug 1998 UTC launched from the Pegasus Launch, Eastern Range Air Space (ERAS). Debris objects in space refer to the collection of defunct objects orbiting the Earth. Examples of debris include non-operational satellites, rocket bodies, and fragments generated from explosions, collisions, or faulty payload assembly.

Loading next visibility...
Identifier
44024, 1998-046T
Orbit
LEO
Country
Flag of USUS / ORB
Related business
Manufacturer
OSC-Germantown
Mission
Spacecraft
Bus & Motor
MICROSTAR, Unknown motor
Mass
Unknown
Launch date (UTC)
1998-08-02 (28 years ago)
Launch vehicle
Unknown
Launch site
Pegasus Launch, Eastern Range Air Space (ERAS)
Object type
Payload
Rocket body
Debris
Shape & HBR
Unknown shape, 0.1 m
Radar Cross Section
Small (<0.1 m²)

Expand to show TLE details & history
Last TLE update: 4 hours ago

TLE from 4 hours ago
0 ORBCOMM FM 16 DEB
1 44024U 98046T   26038.29844242  .00001277  00000-0  46181-3 0  9995
2 44024  44.9950 139.0669 0003666  39.8576 320.2541 14.38345792372960
Epoch: 2026-02-07T07:09Z
TLE epoch observation values (Epoch: 2026-02-07T07:09:45.425Z)
Latitude
-0°
Longitude
-105.79634°
Altitude
761.955 km
Speed
7.476 km/s
True Right ascension
09h 16m 16s
True Declination
0° 00' 00"
Sunlit
Object was in full shadow at epoch
Visualization orbit readout
Latitude
Unknown
Longitude
Unknown
Altitude
Unknown
Speed
Unknown
Apparent Right ascension
Unknown
Apparent Declination
Unknown
Sunlit
N/A
Visualization observer readout
Local Sidereal Time
13:02:25
Azimuth
Unknown
Elevation
Unknown
Doppler factor
Unknown
Orbital elements
Apogee altitude
768.135 km
Perigee altitude
762.897 km
Semi-major axis
7,143.653 km
Eccentricity
0.00037
Inclination
44.995°
RAAN
139.0669°
Arg. of periapsis
39.8576°
True anomaly
320.22723°
Mean anomaly
320.2541°
Eccentric anomaly
320.24067°
Mean motion
3.5947 °/min
Orbital period
100.15 mins
BSTAR
0.00046181
Loading maneuver chart data...
Computing Atmospheric mass density...

Documentation

Showing up to 5 results
|